TimeMDT,TemperatureF,Dew PointF,Humidity,Sea Level PressureIn,VisibilityMPH,Wind Direction,Wind SpeedMPH,Gust SpeedMPH,PrecipitationIn,Events,Conditions,WindDirDegrees,DateUTC
12:53 AM,24.1,10.9,57,30.23,10.0,Calm,Calm,-,N/A,,Clear,0,2013-03-12 06:53:00
1:53 AM,26.1,12.0,55,30.22,10.0,SSW,6.9,-,N/A,,Clear,210,2013-03-12 07:53:00
2:53 AM,26.1,10.9,53,30.22,10.0,SSW,10.4,-,N/A,,Clear,200,2013-03-12 08:53:00
3:53 AM,21.9,12.0,66,30.23,10.0,SW,6.9,-,N/A,,Overcast,230,2013-03-12 09:53:00
4:53 AM,25.0,14.0,63,30.22,10.0,WSW,5.8,-,N/A,,Overcast,240,2013-03-12 10:53:00
5:53 AM,25.0,15.1,66,30.22,10.0,WSW,5.8,-,N/A,,Overcast,250,2013-03-12 11:53:00
6:53 AM,28.0,14.0,56,30.22,10.0,SSW,6.9,-,N/A,,Overcast,210,2013-03-12 12:53:00
7:53 AM,28.9,15.1,56,30.22,10.0,SSW,10.4,-,N/A,,Overcast,200,2013-03-12 13:53:00
8:53 AM,30.9,15.1,52,30.23,10.0,SW,9.2,-,N/A,,Overcast,220,2013-03-12 14:53:00
9:53 AM,28.0,19.0,69,30.27,10.0,West,3.5,-,N/A,,Overcast,260,2013-03-12 15:53:00
10:53 AM,36.0,15.1,43,30.22,10.0,SSW,6.9,-,N/A,,Overcast,210,2013-03-12 16:53:00
11:53 AM,42.1,18.0,38,30.19,10.0,SSE,5.8,-,N/A,,Overcast,150,2013-03-12 17:53:00
12:53 PM,46.0,23.0,40,30.18,10.0,SW,15.0,-,N/A,,Mostly Cloudy,230,2013-03-12 18:53:00
1:53 PM,48.9,24.1,38,30.14,10.0,SSW,18.4,26.5,N/A,,Mostly Cloudy,210,2013-03-12 19:53:00
2:53 PM,51.1,25.0,36,30.11,10.0,SW,20.7,25.3,N/A,,Overcast,230,2013-03-12 20:53:00
3:53 PM,52.0,24.1,34,30.10,10.0,SSW,15.0,-,N/A,,Mostly Cloudy,210,2013-03-12 21:53:00
4:53 PM,53.1,24.1,32,30.07,10.0,WSW,16.1,-,N/A,,Partly Cloudy,240,2013-03-12 22:53:00
5:53 PM,51.1,24.1,35,30.09,10.0,SSW,19.6,-,N/A,,Clear,210,2013-03-12 23:53:00
6:53 PM,48.9,24.1,38,30.09,10.0,South,11.5,-,N/A,,Mostly Cloudy,190,2013-03-13 00:53:00
7:53 PM,46.9,24.1,41,30.11,10.0,SSW,12.7,-,N/A,,Overcast,200,2013-03-13 01:53:00